Temp
20 20 20 20 20 20 20 19 20 19 19 19 19 18 19 19 19 19 19 18 18 19 18 18 18 18 18 17 17 17 17 17 18 18 18 18 17 17 17 17 17 17 17
20 20 20 20 20 20 20 19 19 20 19 19 18 18 18 19 18 19 18 18 18 19 18 18 18 18 18 17 17 17 17 17 17 18 18 18 18 17 17 17 17 17 17
20 20 20 20 20 20 20 19 20 19 19 19 18 18 18 18 18 18 18 18 18 18 18 18 17 18 18 18 18 17 17 17 17 17 17 17 17 17 17 17 17 17 17
20 19 19 20 20 19 19 19 19 19 19 18 18 18 19 18 18 18 18 18 18 18 17 18 17 18 18 18 18 18 17 17 17 17 17 17 17 17 17 17 17 17 17
19 19 19 20 20 19 19 19 19 19 19 19 19 19 19 18 18 18 18 18 18 18 17 18 18 18 18 18 18 17 17 18 18 17 17 17 17 17 17 16 17 17 17
19 19 19 20 19 19 19 19 19 18 19 18 19 18 18 18 18 17 18 18 18 17 17 18 18 18 18 18 17 17 17 18 17 16 16 17 17 17 17 17 17 17 17
19 19 19 19 19 19 19 19 19 18 19 18 18 18 18 17 17 17 18 18 17 17 18 18 18 18 17 17 17 17 18 17 16 16 16 17 17 17 17 16 17 17 16
19 19 19 19 19 19 19 19 19 18 18 18 18 18 17 17 17 17 18 18 17 17 17 18 18 18 18 17 17 17 17 17 17 16 16 16 16 17 16 16 17 16 16
19 19 19 19 19 19 19 18 18 18 18 18 18 17 17 18 17 17 17 17 17 17 17 17 18 18 17 17 17 17 17 16 17 17 17 16 16 16 16 16 16 16 16
18 18 18 18 18 18 18 18 18 18 17 18 18 17 17 17 17 17 17 17 17 17 17 18 18 18 17 17 16 16 16 15 16 16 16 16 16 16 16 16 16 16 15
18 18 18 18 18 18 18 18 18 18 18 18 17 17 17 17 17 17 17 17 17 17 17 18 18 18 18 16 16 15 15 15 15 15 15 16 15 15 15 15 15 16 15
17 18 18 18 17 18 18 17 17 17 18 17 17 17 17 17 17 17 17 17 17 17 17 18 18 18 18 16 15 16 15 15 15 15 15 15 16 15 15 15 15 15 15
17 17 17 17 17 17 17 17 17 18 18 17 17 17 17 17 17 16 17 17 17 17 17 17 17 18 18 17 16 15 15 15 14 15 15 15 15 15 15 16 15 15 15
17 17 17 17 17 17 17 17 17 18 18 17 17 17 18 18 17 17 17 17 17 17 17 17 18 18 17 17 16 15 15 15 15 14 14 14 14 14 14 15 14 14 14
18 17 17 17 17 16 17 17 17 18 18 18 18 18 18 18 18 17 17 17 17 17 17 17 17 17 17 16 16 16 15 15 15 15 15 15 14 14 14 14 14 14 14
18 17 17 17 17 17 16 17 17 18 18 18 17 18 18 18 17 17 17 17 17 17 17 17 17 17 16 16 16 16 15 15 15 15 14 14 14 14 14 14 14 14 14
18 17 17 17 17 16 17 17 17 18 18 18 17 18 18 17 17 17 17 17 17 17 17 17 17 16 16 16 16 15 15 15 15 14 14 14 14 14 13 14 13 13 14
18 17 17 17 17 16 17 17 17 18 18 18 18 18 18 18 17 18 17 17 17 17 17 17 16 16 16 16 15 15 15 15 15 14 14 14 14 14 13 14 13 13 13
18 17 17 17 17 17 17 18 18 18 18 18 18 18 18 18 18 18 18 17 17 17 17 17 16 16 16 16 16 15 15 15 15 15 14 14 14 14 14 13 13 13 13
18 17 17 17 16 17 17 18 18 18 18 18 18 18 18 18 18 18 18 18 17 17 17 17 16 16 16 16 16 16 15 15 15 15 15 14 14 14 14 13 13 13 13
17 17 17 17 16 16 16 17 17 17 18 18 18 18 18 18 18 18 17 17 17 17 17 17 16 16 16 16 15 15 15 15 15 15 15 15 14 14 14 14 14 13 13
16 19 17 17 17 17 17 17 17 16 17 17 18 18 18 18 17 18 17 17 17 17 17 16 16 16 16 16 15 15 13 15 15 15 15 15 15 15 14 14 14 14 14
12 15 18 17 17 16 16 16 16 16 16 17 17 17 17 17 17 17 17 17 17 17 16 16 16 16 16 16 16 16 12 13 14 15 15 15 15 15 15 14 14 14 14
5 10 15 17 16 16 16 16 16 16 16 16 16 16 17 17 17 17 17 17 16 16 16 16 16 16 16 16 15 16 16 16 13 13 15 15 15 15 15 15 14 14 14
4 5 8 14 16 16 16 16 16 16 16 16 15 16 16 16 16 16 16 16 16 16 16 16 16 16 16 16 16 16 16 16 16 14 12 15 15 16 16 15 15 15 14
1 2 5 9 15 16 16 15 15 16 16 15 15 15 15 16 16 16 16 16 16 16 16 16 16 16 16 16 16 17 17 17 16 16 13 14 15 16 16 16 15 15 15
Height
787 793 796 795 800 802 804 809 812 814 816 818 820 822 823 825 828 831 832 835 836 838 839 840 840 842 844 845 846 846 847 848 848 848 848 848 847 848 846 846 846 846 846
783 790 794 795 799 802 805 809 812 815 818 821 822 825 825 827 830 833 835 837 839 841 843 843 844 845 847 849 849 850 851 851 851 851 852 851 851 851 850 851 850 850 849
782 788 793 795 799 802 805 809 813 816 819 823 825 827 828 830 832 835 837 839 841 844 846 847 847 849 851 852 852 853 854 854 854 855 855 854 854 854 854 854 854 853 852
780 788 792 796 799 802 805 810 813 817 819 824 826 828 830 832 835 837 839 841 844 846 848 850 851 852 854 855 856 857 858 858 857 858 857 856 857 858 858 858 857 856 855
781 787 791 795 799 803 806 810 814 817 821 825 827 830 832 834 837 840 842 844 845 847 850 852 854 855 856 858 859 859 861 860 859 860 860 859 859 861 861 861 860 860 859
781 786 791 794 799 803 807 810 815 818 822 825 829 831 833 836 839 842 844 846 847 850 852 854 856 858 859 860 862 863 864 863 862 862 863 863 864 863 864 864 863 863 863
780 786 790 795 799 802 807 811 816 820 823 826 830 832 835 838 840 843 846 848 850 852 854 856 859 860 862 863 865 866 867 866 865 866 867 867 867 868 868 867 866 867 867
777 784 790 795 798 803 807 812 816 821 824 827 831 833 837 839 842 845 848 850 852 854 857 859 861 863 864 865 867 868 869 869 869 869 871 871 872 872 872 870 870 870 871
779 784 789 795 798 804 807 813 817 821 825 827 831 835 838 841 844 846 849 852 854 856 859 861 863 865 866 868 869 870 871 872 873 873 874 874 875 875 875 874 874 874 875
780 784 788 793 798 803 809 813 817 821 825 828 832 835 839 843 845 848 850 853 856 858 861 863 865 868 869 870 871 872 873 875 876 876 877 878 878 878 878 878 878 877 878
780 784 788 792 798 803 809 814 818 822 825 829 833 836 840 844 847 850 853 856 858 861 863 864 868 870 871 872 873 874 876 877 878 879 880 880 881 881 882 881 881 880 881
777 782 787 792 797 803 809 813 817 822 825 829 833 837 840 845 848 851 855 858 861 863 865 867 869 871 873 873 876 876 878 880 881 882 883 883 884 885 885 885 884 884 884
775 782 787 791 796 802 807 812 816 822 826 830 834 837 840 845 849 853 856 859 862 864 866 869 871 873 874 874 877 879 880 882 883 884 886 887 888 888 888 888 887 888 888
774 781 786 790 795 800 806 811 816 820 825 830 834 837 840 844 849 853 857 860 862 865 867 869 872 874 876 877 879 881 883 885 886 887 888 890 890 891 891 891 891 891 891
773 780 785 788 794 799 804 810 815 820 824 829 833 837 841 845 849 853 857 860 863 865 868 870 873 875 876 879 882 883 885 887 889 890 891 892 893 893 894 894 894 894 894
770 777 783 787 792 797 802 808 813 819 823 828 832 836 841 846 850 853 857 860 863 866 869 871 874 876 879 881 883 886 888 890 892 893 893 895 895 896 896 896 896 897 896
765 773 780 785 790 796 801 807 812 818 822 827 831 835 840 844 849 853 856 860 863 867 869 871 875 878 880 883 885 888 890 892 894 895 896 897 897 897 898 898 899 899 899
763 770 778 785 790 795 801 806 811 816 821 826 830 835 839 844 848 852 856 860 863 867 870 872 875 879 881 884 887 889 892 894 896 897 898 899 899 899 900 900 900 900 900
758 766 774 782 788 793 799 805 810 815 820 825 829 834 838 843 847 851 855 859 863 866 869 872 876 879 882 885 887 890 892 894 897 898 899 900 900 901 901 902 902 902 901
756 763 771 778 786 792 798 803 810 815 820 824 828 832 836 841 846 850 854 858 862 866 869 873 876 880 883 885 888 891 893 895 897 899 900 901 901 902 902 903 903 903 903
753 758 767 774 782 787 794 799 806 810 817 822 826 831 835 839 844 849 853 857 861 865 869 873 877 880 883 886 888 891 895 897 898 899 901 902 902 902 902 903 904 904 904
751 755 762 768 776 783 789 796 801 807 814 820 825 830 834 838 842 847 851 855 859 864 868 872 876 880 883 886 887 890 896 899 899 900 901 903 902 903 903 904 904 905 904
751 756 759 764 770 779 786 793 801 808 815 820 825 828 831 836 840 845 849 854 858 863 866 870 875 878 882 885 887 887 894 896 898 900 900 902 902 903 903 904 905 905 904
755 756 759 761 766 773 781 788 793 798 804 810 817 824 828 834 838 843 847 852 856 861 865 869 873 877 880 882 886 887 886 888 895 901 899 901 902 903 903 904 905 905 905
758 759 759 757 761 767 775 780 788 794 801 807 813 821 826 831 835 839 844 849 853 858 862 866 871 875 879 882 884 886 887 888 890 893 899 900 901 902 902 903 904 904 904
762 763 759 758 757 761 768 778 785 790 795 801 809 817 823 828 832 836 841 846 850 855 859 863 867 872 876 880 883 885 886 888 890 891 894 899 900 901 901 902 903 903 904
Wind_Speed
31 31 29 30 30 30 31 29 26 25 24 24 24 23 23 21 24 27 27 29 28 26 25 27 31 30 30 29 28 28 27 23 27 27 26 28 29 25 25 27 25 25 24
39 34 31 31 32 32 31 29 26 23 24 24 24 22 23 23 25 25 27 30 29 27 24 25 29 30 29 27 26 25 25 25 25 26 25 26 25 25 27 29 29 24 23
38 35 32 33 33 33 31 29 26 23 24 23 23 22 23 26 29 31 31 30 29 26 25 26 26 28 28 28 27 26 25 29 28 24 24 26 25 24 24 26 25 23 25
39 36 35 35 34 34 32 28 24 23 25 23 23 24 24 26 28 30 30 30 27 27 26 26 27 29 27 28 31 29 26 25 22 22 21 22 23 24 24 22 22 23 26
39 37 37 36 35 34 30 26 22 25 26 26 23 26 25 26 28 27 27 28 28 28 28 28 27 29 30 29 25 25 21 23 24 25 24 27 27 21 23 22 22 22 27
37 37 38 37 35 33 29 26 25 27 27 25 25 28 28 26 25 25 27 27 28 28 27 29 28 29 26 23 24 23 21 26 30 30 29 28 27 25 25 22 20 24 27
38 38 38 37 35 33 29 27 28 28 27 26 26 28 27 26 24 24 26 27 26 27 29 29 29 28 27 25 22 23 19 23 31 33 29 28 25 24 24 20 22 26 26
40 40 37 36 36 32 30 28 28 27 26 28 28 26 26 26 25 25 25 25 26 27 30 30 29 27 23 24 21 19 21 22 23 27 29 25 24 22 21 22 24 25 26
39 39 38 37 34 32 30 30 28 28 28 29 26 24 24 24 24 24 25 25 27 29 31 31 29 27 27 25 23 21 22 22 20 17 19 22 23 22 21 22 22 23 24
37 36 39 37 34 33 32 31 29 30 28 27 25 25 24 26 26 26 26 27 28 30 32 33 30 28 25 22 22 26 24 22 21 20 18 20 21 21 21 24 21 21 23
34 36 37 37 35 35 35 32 31 30 26 24 24 26 29 30 29 28 28 28 26 29 30 30 23 23 23 20 25 25 26 23 20 19 20 18 19 21 22 23 23 22 22
31 35 37 37 37 37 36 34 32 30 30 29 30 32 33 32 30 30 29 26 25 26 24 22 22 20 18 19 26 23 24 22 21 20 18 17 17 17 19 19 21 23 21
32 32 35 38 39 37 38 36 35 34 33 35 32 33 34 32 34 32 29 26 25 26 26 22 18 18 15 21 25 27 25 23 21 19 21 17 15 16 17 15 17 19 21
33 34 36 37 38 37 40 38 38 39 36 36 32 32 33 33 33 28 25 23 27 24 22 21 20 17 19 26 26 27 24 22 20 21 21 21 18 14 14 15 16 16 17
33 34 37 38 37 39 40 38 39 40 38 38 31 31 31 32 30 28 29 25 24 22 23 21 22 22 24 26 24 21 19 21 19 17 18 16 17 17 15 13 12 13 14
35 37 38 38 39 40 38 39 38 41 38 37 30 35 33 33 29 28 26 24 24 20 23 23 22 21 24 25 23 20 20 21 18 17 16 18 16 14 15 15 14 12 11
38 39 39 38 40 37 39 38 39 39 37 32 38 36 35 35 32 30 28 26 21 23 24 23 22 22 24 22 22 22 19 19 16 16 16 13 12 13 14 15 14 13 12
37 39 37 36 40 36 39 38 40 38 35 30 39 32 34 32 32 27 27 28 25 24 24 25 24 23 21 21 24 20 20 15 15 14 13 11 12 12 12 10 11 11 11
40 41 39 38 41 40 40 37 38 38 35 32 34 34 28 33 29 29 29 29 25 25 25 27 25 24 22 20 20 18 19 16 14 12 10 9 9 10 11 9 10 9 11
40 41 42 41 40 41 40 37 38 36 37 33 33 33 30 33 30 31 26 30 27 28 25 27 25 23 22 22 22 18 15 16 13 10 12 9 8 7 8 8 7 9 9
38 40 42 41 41 41 37 38 35 36 36 34 33 32 33 32 30 33 27 32 31 29 25 25 24 24 21 22 20 19 16 13 12 10 8 8 8 6 6 5 5 5 7
28 41 42 42 44 43 39 38 36 34 35 33 35 32 33 33 31 34 31 31 32 29 26 26 26 24 23 21 18 14 3 4 7 7 7 6 6 4 4 3 3 3 4
5 16 42 41 43 41 38 35 31 29 31 31 33 32 35 35 32 33 33 31 31 30 28 27 26 25 24 18 20 4 3 3 6 7 7 6 6 3 3 1 0 1 2
17 3 17 38 41 41 39 39 35 34 35 34 36 34 36 35 33 31 32 34 32 30 29 27 26 25 25 21 11 4 5 10 3 1 6 7 7 6 2 2 4 3 2
18 16 7 21 40 41 42 41 40 32 33 31 34 37 37 37 35 33 33 34 34 31 31 28 27 24 24 22 14 9 7 9 6 4 2 4 7 7 4 3 3 2 3
23 21 17 12 35 43 42 41 38 36 33 33 33 37 38 39 37 36 34 34 34 33 33 30 28 27 24 20 16 12 9 4 5 4 4 3 5 8 5 5 4 2 2
Wind_Direction
161 163 161 152 150 145 141 136 131 126 122 118 116 112 110 116 121 120 115 109 107 101 96 96 93 91 89 87 85 81 78 84 88 86 81 73 75 76 72 77 74 71 70
158 160 159 154 151 146 142 137 132 132 129 125 120 114 110 112 126 122 119 112 107 104 100 95 94 90 88 88 86 86 82 82 92 96 85 76 74 74 71 75 75 75 69
154 157 158 154 151 146 143 139 138 139 133 132 127 120 116 111 115 120 113 112 109 107 105 99 95 92 92 88 86 90 93 84 86 93 87 79 76 76 75 79 78 75 72
152 156 157 155 151 148 145 143 143 140 133 134 133 128 123 118 118 117 116 113 113 111 108 103 97 93 96 96 92 96 92 92 93 94 85 77 87 80 81 79 78 76 79
151 157 157 156 152 149 147 145 139 137 139 133 139 133 130 122 117 116 116 118 117 116 111 104 102 100 100 98 96 98 98 92 97 89 84 78 80 89 83 81 83 78 81
152 157 159 156 154 151 149 142 137 134 140 134 132 137 130 124 117 118 120 120 119 118 116 112 107 105 100 104 105 105 95 92 91 86 83 78 74 76 79 80 80 85 81
154 157 158 157 156 153 149 143 141 141 143 139 136 130 125 125 122 123 128 127 122 122 117 113 110 108 101 104 107 110 110 93 89 82 79 76 76 72 74 73 88 86 80
154 156 157 158 156 153 150 146 143 146 142 146 138 134 129 126 125 128 132 130 128 125 122 116 110 108 101 108 95 100 116 101 94 86 81 78 78 78 76 73 86 84 81
154 155 156 157 155 156 150 149 147 149 146 148 144 140 136 134 130 132 134 132 130 127 124 115 109 110 104 106 98 97 110 102 98 95 83 78 75 79 77 76 80 87 82
150 153 156 158 157 156 153 151 149 149 151 152 150 145 138 139 134 131 133 131 132 131 125 115 108 110 106 106 102 103 107 97 96 94 98 90 82 86 79 73 74 88 84
152 157 160 159 161 159 155 153 150 152 153 154 153 148 142 139 134 134 131 128 128 134 131 117 117 109 108 104 112 105 102 98 99 93 95 102 81 83 82 77 73 81 86
156 161 165 163 162 160 158 155 153 151 147 144 142 144 141 141 137 132 129 125 124 123 124 124 123 110 112 103 113 104 103 103 102 96 92 113 93 87 81 79 77 72 78
159 159 161 162 161 158 159 158 155 152 146 141 141 144 145 145 139 134 128 125 126 127 124 121 117 110 101 124 121 113 109 106 104 103 100 105 93 94 88 90 81 78 75
161 165 162 161 160 160 161 160 159 154 151 148 147 153 152 151 145 142 137 131 135 130 124 119 116 122 119 127 121 116 109 106 103 96 104 99 93 95 96 86 80 80 78
163 166 168 162 162 163 162 162 161 159 156 153 157 156 158 154 152 152 139 137 136 132 128 124 123 109 117 120 116 113 114 111 108 108 102 91 86 84 88 92 92 83 78
164 167 169 166 168 167 166 166 164 165 164 162 165 162 162 158 158 153 153 151 149 141 137 128 131 114 115 113 112 106 111 119 115 112 104 102 101 91 89 91 87 85 84
167 168 170 169 172 166 170 168 167 171 172 169 166 165 163 162 164 161 161 155 152 146 141 135 131 123 119 114 119 113 118 116 112 101 103 101 91 92 99 95 82 80 75
166 168 168 169 171 168 170 169 171 175 177 170 164 165 162 167 169 167 166 159 154 153 145 141 135 130 124 124 123 123 121 125 113 114 108 98 84 91 111 88 82 89 84
170 168 167 170 169 170 170 173 175 174 177 166 163 163 170 172 171 163 165 160 160 162 153 145 138 137 132 130 129 124 127 130 128 117 127 119 105 90 91 90 79 78 90
171 169 169 170 170 170 170 171 171 175 176 171 166 170 171 174 178 172 163 162 165 153 151 147 142 142 140 140 135 134 135 132 130 124 111 120 113 105 93 86 82 71 76
174 171 171 171 172 166 165 164 164 168 173 176 174 173 173 170 170 174 165 165 162 158 154 154 150 150 144 137 126 122 110 122 139 143 128 111 127 105 100 88 83 83 75
180 180 170 175 175 172 171 170 167 166 171 173 175 176 178 177 170 174 170 163 162 160 160 158 160 157 152 158 143 123 90 101 139 144 152 162 155 125 122 108 70 71 60
100 173 178 175 175 174 172 167 160 161 166 170 177 175 179 181 174 177 180 170 170 170 168 168 170 167 160 166 170 148 129 173 152 177 175 181 181 188 182 179 220 335 11
23 28 200 178 174 173 168 167 163 167 169 179 180 177 177 180 179 179 183 183 176 177 177 177 175 177 175 175 163 149 112 136 151 146 190 203 206 214 203 238 251 247 310
30 13 327 190 176 171 173 172 172 172 172 171 176 182 178 180 182 183 183 183 183 181 182 183 182 183 185 187 192 168 133 121 127 143 148 187 214 218 223 242 255 277 264
29 14 20 23 182 175 171 178 178 176 169 162 169 177 183 185 185 186 185 185 184 185 186 185 187 187 190 196 196 191 177 163 169 139 115 159 205 205 204 228 252 264 294